| time (UTC) | temp F | wind direction | speed MPH | gust MPH | rain 1hr in | rain 24hr in | rain mn in | humidity % | barometer mb |
| 20260901051533 | 62 | 127 | 0.0 | 0.0 | 0.00 | 0.00 | 0.00 | 54 | 1010.0 |
| 20260901050037 | 63 | 232 | 0.0 | 1.0 | 0.00 | 0.00 | 0.00 | 53 | 1009.9 |
| 20260901044535 | 63 | 268 | 0.0 | 2.0 | 0.00 | 0.00 | 0.00 | 54 | 1010.0 |
| 20260901043108 | 62 | 203 | 0.0 | 6.0 | 0.00 | 0.00 | 0.00 | 57 | 1009.9 |
| 20260901041609 | 62 | 90 | 0.0 | 0.0 | 0.00 | 0.00 | 0.00 | 59 | 1009.8 |
| 20260901040035 | 62 | 90 | 0.0 | 0.0 | 0.00 | 0.00 | 0.00 | 59 | 1009.6 |
| 20260901034534 | 63 | 90 | 0.0 | 0.0 | 0.00 | 0.00 | 0.00 | 57 | 1009.4 |
| 20260901033035 | 63 | 90 | 0.0 | 0.0 | 0.00 | 0.00 | 0.00 | 56 | 1009.2 |
| 20260901031607 | 64 | 102 | 0.0 | 0.0 | 0.00 | 0.00 | 0.00 | 56 | 1009.1 |
| 20260901030033 | 65 | 129 | 0.0 | 0.0 | 0.00 | 0.00 | 0.00 | 55 | 1008.9 |
| 20260901024606 | 66 | 113 | 0.0 | 2.0 | 0.00 | 0.00 | 0.00 | 54 | 1008.9 |
| 20260901023035 | 67 | 126 | 0.0 | 2.0 | 0.00 | 0.00 | 0.00 | 54 | 1008.7 |
| 20260901021535 | 70 | 123 | 0.0 | 1.0 | 0.00 | 0.00 | 0.00 | 53 | 1008.7 |
| 20260901020035 | 74 | 119 | 0.0 | 2.0 | 0.00 | 0.00 | 0.00 | 50 | 1008.6 |
| 20260901014535 | 78 | 201 | 0.0 | 0.0 | 0.00 | 0.00 | 0.00 | 39 | 1008.7 |
| 20260901013035 | 80 | 202 | 0.0 | 0.0 | 0.00 | 0.00 | 0.00 | 33 | 1008.7 |
| 20260901011531 | 81 | 202 | 0.0 | 2.0 | 0.00 | 0.00 | 0.00 | 30 | 1008.8 |
| 20260901010031 | 83 | 137 | 0.0 | 1.0 | 0.00 | 0.00 | 0.00 | 28 | 1008.9 |
| 20260901004534 | 84 | 38 | 0.0 | 5.0 | 0.00 | 0.00 | 0.00 | 27 | 1009.0 |
| 20260901001534 | 85 | 23 | 0.0 | 3.0 | 0.00 | 0.00 | 0.00 | 26 | 1009.2 |
| 20260901000044 | 85 | 54 | 1.0 | 4.0 | 0.00 | 0.00 | 0.00 | 27 | 1009.4 |
| 20260831234530 | 85 | 150 | 0.0 | 4.0 | 0.00 | 0.00 | 0.00 | 28 | 1009.6 |
| 20260831231535 | 85 | 351 | 2.0 | 6.0 | 0.00 | 0.00 | 0.00 | 26 | 1010.0 |
| 20260831230032 | 86 | 345 | 3.0 | 8.0 | 0.00 | 0.00 | 0.00 | 27 | 1010.2 |
| 20260831224538 | 86 | 346 | 1.0 | 6.0 | 0.00 | 0.00 | 0.00 | 27 | 1010.6 |
| 20260831223034 | 87 | 323 | 1.0 | 6.0 | 0.00 | 0.00 | 0.00 | 28 | 1010.8 |
| 20260831221607 | 86 | 208 | 0.0 | 4.0 | 0.00 | 0.00 | 0.00 | 29 | 1011.0 |
| 20260831220109 | 84 | 151 | 1.0 | 6.0 | 0.00 | 0.00 | 0.00 | 30 | 1011.3 |
| 20260831214535 | 83 | 2 | 1.0 | 6.0 | 0.00 | 0.00 | 0.00 | 32 | 1011.6 |
| 20260831210034 | 78 | 93 | 0.0 | 4.0 | 0.00 | 0.00 | 0.00 | 37 | 1012.4 |
| 20260831204609 | 78 | 359 | 1.0 | 6.0 | 0.00 | 0.00 | 0.00 | 40 | 1012.6 |
| 20260831203035 | 77 | 328 | 1.0 | 6.0 | 0.00 | 0.00 | 0.00 | 40 | 1013.0 |
| 20260831200110 | 75 | 299 | 1.0 | 7.0 | 0.00 | 0.00 | 0.00 | 42 | 1013.6 |
| 20260831193033 | 75 | 46 | 1.0 | 7.0 | 0.00 | 0.00 | 0.00 | 44 | 1014.1 |
| 20260831191535 | 75 | 9 | 2.0 | 7.0 | 0.00 | 0.00 | 0.00 | 45 | 1014.6 |
| 20260831184536 | 74 | 348 | 1.0 | 5.0 | 0.00 | 0.00 | 0.00 | 49 | 1015.2 |
| 20260831183037 | 72 | 335 | 1.0 | 4.0 | 0.00 | 0.00 | 0.00 | 51 | 1015.5 |
| 20260831180031 | 71 | 323 | 1.0 | 5.0 | 0.00 | 0.00 | 0.00 | 57 | 1015.8 |
| 20260831173033 | 64 | 331 | 0.0 | 3.0 | 0.00 | 0.00 | 0.00 | 68 | 1016.3 |
| 20260831170037 | 62 | 46 | 0.0 | 3.0 | 0.00 | 0.00 | 0.00 | 70 | 1016.4 |
| 20260831164535 | 61 | 59 | 0.0 | 2.0 | 0.00 | 0.00 | 0.00 | 72 | 1016.7 |
| 20260831163034 | 60 | 13 | 0.0 | 0.0 | 0.00 | 0.00 | 0.00 | 74 | 1016.8 |
| 20260831161530 | 59 | 360 | 0.0 | 2.0 | 0.00 | 0.00 | 0.00 | 76 | 1017.0 |
| 20260831160106 | 58 | 360 | 0.0 | 3.0 | 0.00 | 0.00 | 0.00 | 79 | 1017.1 |
| 20260831154606 | 57 | 7 | 2.0 | 5.0 | 0.00 | 0.00 | 0.00 | 84 | 1017.1 |
| 20260831151543 | 51 | 79 | 0.0 | 0.0 | 0.00 | 0.00 | 0.00 | 93 | 1017.2 |
| 20260831150034 | 49 | 112 | 0.0 | 0.0 | 0.00 | 0.00 | 0.00 | 94 | 1016.9 |
| 20260831143034 | 47 | 112 | 0.0 | 0.0 | 0.00 | 0.00 | 0.00 | 93 | 1016.8 |
| 20260831140143 | 46 | 112 | 0.0 | 0.0 | 0.00 | 0.00 | 0.00 | 92 | 1016.7 |
| 20260831134537 | 46 | 112 | 0.0 | 0.0 | 0.00 | 0.00 | 0.00 | 92 | 1016.8 |
| 20260831133038 | 47 | 112 | 0.0 | 0.0 | 0.00 | 0.00 | 0.00 | 92 | 1016.7 |
| 20260831131607 | 47 | 112 | 0.0 | 0.0 | 0.00 | 0.00 | 0.00 | 92 | 1016.7 |
| 20260831130035 | 47 | 112 | 0.0 | 0.0 | 0.00 | 0.00 | 0.00 | 91 | 1016.6 |
| 20260831124615 | 47 | 112 | 0.0 | 0.0 | 0.00 | 0.00 | 0.00 | 91 | 1016.6 |
| 20260831121651 | 48 | 112 | 0.0 | 0.0 | 0.00 | 0.00 | 0.00 | 90 | 1016.5 |
| 20260831120035 | 48 | 112 | 0.0 | 0.0 | 0.00 | 0.00 | 0.00 | 90 | 1016.5 |
| 20260831114536 | 49 | 112 | 0.0 | 0.0 | 0.00 | 0.00 | 0.00 | 90 | 1016.5 |
| 20260831113107 | 49 | 112 | 0.0 | 0.0 | 0.00 | 0.00 | 0.00 | 90 | 1016.5 |
| 20260831111546 | 49 | 112 | 0.0 | 0.0 | 0.00 | 0.00 | 0.00 | 89 | 1016.4 |
| 20260831110110 | 49 | 112 | 0.0 | 0.0 | 0.00 | 0.00 | 0.00 | 88 | 1016.4 |
| 20260831103030 | 49 | 112 | 0.0 | 0.0 | 0.00 | 0.00 | 0.00 | 87 | 1016.4 |
| 20260831101534 | 50 | 112 | 0.0 | 0.0 | 0.00 | 0.00 | 0.00 | 86 | 1016.5 |
| 20260831094644 | 51 | 112 | 0.0 | 0.0 | 0.00 | 0.00 | 0.00 | 85 | 1016.8 |
| 20260831093035 | 51 | 112 | 0.0 | 0.0 | 0.00 | 0.00 | 0.00 | 85 | 1016.8 |
| 20260831090034 | 51 | 112 | 0.0 | 0.0 | 0.00 | 0.00 | 0.00 | 84 | 1016.9 |
| 20260831084534 | 51 | 112 | 0.0 | 0.0 | 0.00 | 0.00 | 0.00 | 84 | 1017.0 |
| 20260831083141 | 52 | 104 | 0.0 | 0.0 | 0.00 | 0.00 | 0.00 | 83 | 1016.9 |
| 20260831081535 | 52 | 90 | 0.0 | 0.0 | 0.00 | 0.00 | 0.00 | 82 | 1016.9 |
| 20260831080106 | 52 | 90 | 0.0 | 0.0 | 0.00 | 0.00 | 0.00 | 81 | 1017.0 |
| 20260831074537 | 53 | 90 | 0.0 | 0.0 | 0.00 | 0.00 | 0.00 | 80 | 1017.0 |
| 20260831071536 | 54 | 90 | 0.0 | 0.0 | 0.00 | 0.00 | 0.00 | 79 | 1016.9 |
| 20260831070032 | 54 | 90 | 0.0 | 0.0 | 0.00 | 0.00 | 0.00 | 78 | 1017.0 |
| 20260831064534 | 54 | 90 | 0.0 | 0.0 | 0.00 | 0.00 | 0.00 | 78 | 1017.0 |
| 20260831063142 | 55 | 90 | 0.0 | 0.0 | 0.00 | 0.00 | 0.00 | 78 | 1017.1 |
| 20260831061533 | 55 | 90 | 0.0 | 0.0 | 0.00 | 0.00 | 0.00 | 77 | 1017.1 |
| 20260831060034 | 55 | 91 | 0.0 | 0.0 | 0.00 | 0.00 | 0.00 | 76 | 1017.0 |
| 20260831054532 | 55 | 101 | 0.0 | 0.0 | 0.00 | 0.00 | 0.00 | 77 | 1017.1 |
| 20260831053035 | 56 | 90 | 0.0 | 0.0 | 0.00 | 0.00 | 0.00 | 76 | 1017.2 |